Find Starlink 5469

NORAD ID: 55649 Int'l Des: 2023-021 Owner: SPXS Country: US Constellation: starlink operational
LEOCIRCULAR

現在のビュー

3D地球を読み込み中...

Starlink 5469について

説明を読み込み中...

次回通過

Passes for default location (London). Set your location on the main map for personalized predictions.

高度履歴

Loading altitude history...

軌道要素

1 55649U 23021X 26149.80309270 .00000210 00000-0 25431-4 0 9990
2 55649 69.9992 339.8494 0002637 266.8678 93.2179 14.98331275180942
Epoch: May 29, 2026 • Age: 17 hours

現在のステータス

高度 591.7 km
速度 7.56 km/s
衛星直下点 -56.23°S, 132.13°W
打ち上げ日 Feb 17, 2023
運用期間 3.2 years
タイプ internet

技術仕様

分類 Payload
質量 305.00 kg
乾燥質量 290.00 kg
総質量 305.00 kg
長さ 0.20 m
直径 2.80 m
スパン 9.00 m
形状 Box + pan
製造者 SPXS
バスタイプ Starlink
フェーズステータス In Orbit
所有者/国 SPXS/US

Most Searched